User: anonymous   Login
Location: Caltech
(34.1382°N, 118.1253°W)
Time: 08:15:20
(UTC-07:00)
Language:

Cosmos 2251 Rocket - Orbit

View from above orbital plane
View from above orbital plane
View from above satellite
View from above satellite

Ground track
Ground track

The orbit data is extracted from the following two-line orbital elements,

1 22676U 93036B   16273.12676281  .00000073  00000-0  35318-4 0  9990
2 22676  74.0415 299.3116 0018352  26.5608 333.6479 14.33891469217927
Epoch (UTC): 29 September 2016 03:02:32
Eccentricity: 0.0018352
inclination: 74.0415°
perigee height: 765 km
apogee height: 792 km
right ascension of ascending node: 299.3116°
argument of perigee: 26.5608°
revolutions per day: 14.33891469
mean anomaly at epoch: 333.6479°
orbit number at epoch: 21792

The dashed part of the orbit path shows where the satellite is in the earth's shadow,  

DLR